GPS BIIF-5 (39533 NORAD) Tracking and Keplerian Element Data

This shows tracking and keplerian element data for the satellite.

Feedback or suggestion? Click here.




ElementValue
Catalog39533
NameGPS BIIF-5
Epoch Orbit3220
Epoch Day196.92713782
Epoch Year2018
RAAN267.6722
Inclination54.0711
Eccentricity0.0036072
Argument of Perigee190.3302
Mean Anonmoly169.6735
Mean Motion2.00558432
Decay Rate-9E-08
L11 39533U 14008A 18196.92713782 -.00000009 00000-0 00000+0 0 9999
L22 39533 54.0711 267.6722 0036072 190.3302 169.6735 2.00558432 32204

Live tracking and technical data element details for GPS BIIF-5 (NORAD 39533). GPS BIIF-5 can be tracked NOW for your location showing map with azimuth and elevation plus other details from your city location.

Track the satellite on the map from your city or location and see movement details for azimuth, elevation, latitude, longitude, range, height, and movement on the map or in text.







IsCatalogInMostPopularTable: catalog: 39533, numindb: 71
Update: records affected: 1



GetName: 39533 GPS BIIF-5

Hit Count: updated at: Wed, 18 Jul 2018 20:23:11 GMT